Skip Page Navigation
NASA JPL Caltech
NASA Logo - Jet Propulsion Laboratory + View the NASA Portal
+ Near-Earth Object (NEO) Program
Search JPL
JPL Home Earth Solar System Stars & Galaxies Technology
JPL Solar System Dynamics
BODIES ORBITS EPHEMERIDES TOOLS PHYSICAL DATA DISCOVERY FAQ SITE MAP
JPL Small-Body Database Browser
Search: [ help ]  
88213 (2001 AF2)
Classification: Aten [NEO]          SPK-ID: 2088213
Ephemeris | Orbit Diagram | Orbital Elements | Physical Parameters | Discovery Circumstances | Close-Approach Data ]

[ hide orbit diagram ]
Orbit Diagram
Note: Make sure you have Java enabled on your browser to see the applet. This applet is provided as a 3D orbit visualization tool. The applet was implemented using 2-body methods, and hence should not be used for determining accurate long-term trajectories (over several years or decades) or planetary encounter circumstances. For accurate long-term ephemerides, please instead use our Horizons system.
Orbit Viewer

Additional Notes: the orbits shown in the applet are color coded. The planets are white lines, and the asteroid/comet is a blue line. The bright white line indicates the portion of the orbit that is above the ecliptic plane, and the darker portion is below the ecliptic plane. Likewise for the asteroid/comet orbit, the light blue indicates the portion above the ecliptic plane, and the dark blue the portion below the ecliptic plane.

Orbit Viewer applet originally written and kindly provided by Osamu Ajiki (AstroArts), and further modified by Ron Baalke (JPL).


Orbital Elements at Epoch 2456400.5 (2013-Apr-18.0) TDB
Reference: JPL 35 (heliocentric ecliptic J2000)
 Element Value Uncertainty (1-sigma)   Units 
e .5952555527610144 3.2962e-07  
a .9539814585652221 1.6386e-08 AU
q .3861186981232221 3.0875e-07 AU
i 17.81631579997562 2.6047e-05 deg
node 114.2920793186467 3.3954e-05 deg
peri 194.962773324334 4.6634e-05 deg
M 191.51376317095 3.0382e-05 deg
tp 2456559.783304611300
(2013-Sep-24.28330461)
3.1424e-05 JED
period 340.3363428328481
0.93
8.7686e-06
2.401e-08
d
yr
n 1.057777130128032 2.7253e-08 deg/d
Q 1.521844219007222 2.614e-08 AU
  Orbit Determination Parameters
   # obs. used (total)      112  
   data-arc span      4389 days (12.02 yr)  
   first obs. used      2001-01-02  
   last obs. used      2013-01-08  
   planetary ephem.      DE405  
   SB-pert. ephem.      SB405-CPV-2  
   condition code      0  
   fit RMS      .4893  
   data source      ORB  
   producer      Otto Matic  
   solution date      2013-Apr-29 15:42:09  

Additional Information
 Earth MOID = .172415 AU 
 T_jup = 6.109 
[ show covariance matrix ]

Ephemeris | Orbit Diagram | Orbital Elements | Physical Parameters | Discovery Circumstances | Close-Approach Data ]

Physical Parameter Table
Parameter Symbol Value Units Sigma Reference Notes
absolute magnitude H 18.935 mag 1.1552 35 autocmod 2.5c

88213 (2001 AF2)          Discovered 2001-Jan-02 by LINEAR at Socorro (704)
Reference: 20040830/Numbers.arcLast Updated: 2004-09-06

[ show close-approach data ]
Ephemeris | Orbit Diagram | Orbital Elements | Physical Parameters | Discovery Circumstances | Close-Approach Data ]
ABOUT SSD CREDITS/AWARDS PRIVACY/COPYRIGHT GLOSSARY LINKS
FirstGov 2013-May-18 16:28 UT
(server date/time)  
NASA Home Page
Site Manager:   Donald K. Yeomans
Webmaster  Alan B. Chamberlin